FW5345 Weather Reports


Display with metric or nautical units.
time (UTC)temp
F
wind
direction
speed
MPH
gust
MPH
rain 1hr
in
rain 24hr
in
rain mn
in
humidity
%
barometer
mb
20210918144528 51 335 2.0 0.0 0.02 0.18 0.18 97 1008.9
20210918141530 51 212 1.0 0.0 0.02 0.17 0.17 97 1008.9
20210918140039 51 242 0.0 0.0 0.02 0.16 0.16 97 1008.5
20210918134537 51 171 3.0 0.0 0.02 0.16 0.16 97 1009.2
20210918133047 51 32 2.0 0.0 0.01 0.15 0.15 97 1008.5
20210918131539 51 346 2.0 0.0 0.02 0.15 0.15 96 1008.5
20210918130035 51 341 2.0 0.0 0.01 0.14 0.14 96 1008.5
20210918124530 51 73 2.0 0.0 0.01 0.14 0.14 96 1008.5
20210918123033 51 234 1.0 0.0 0.01 0.14 0.14 96 1008.5
20210918121547 51 335 1.0 0.0 0.01 0.13 0.13 95 1008.5
20210918120043 51 135 3.0 0.0 0.02 0.13 0.13 95 1008.5
20210918114533 51 138 1.0 0.0 0.02 0.13 0.13 94 1008.9
20210918113038 51 43 1.0 0.0 0.03 0.13 0.13 94 1009.2
20210918111535 52 43 1.0 0.0 0.02 0.12 0.12 93 1009.2
20210918110036 53 56 2.0 0.0 0.02 0.11 0.11 93 1010.0
20210918103039 53 52 1.0 0.0 0.05 0.10 0.10 93 1009.6
20210918101540 53 96 2.0 0.0 0.08 0.10 0.10 92 1009.6
20210918100033 54 76 2.0 0.0 0.09 0.09 0.09 90 1009.6
20210918094534 55 66 0.0 0.0 0.07 0.07 0.07 88 1010.0
20210918093040 56 196 1.0 0.0 0.05 0.05 0.05 85 1010.0
20210918091531 57 288 3.0 0.0 0.02 0.02 0.02 82 1009.6
20210918090038 58 206 3.0 0.0 0.00 0.00 0.00 82 1008.9
20210918084536 59 132 1.0 0.0 0.00 0.00 0.00 79 1008.5
20210918083049 62 310 4.0 0.0 0.00 0.00 0.00 76 1007.8
20210918081537 64 290 3.0 0.0 0.00 0.00 0.00 70 1006.1
20210918080037 64 353 3.0 0.0 0.00 0.00 0.00 68 1005.3
20210918074545 66 12 3.0 0.0 0.00 0.00 0.00 65 1005.7
20210918073039 67 340 3.0 0.0 0.00 0.00 0.00 60 1006.4
20210918071538 67 261 3.0 0.0 0.00 0.00 0.00 61 1006.4
20210918070034 65 321 5.0 0.0 0.00 0.00 0.00 63 1006.1
20210918064531 65 318 4.0 0.0 0.00 0.00 0.00 63 1006.4
20210918063045 64 335 5.0 0.0 0.00 0.00 0.00 64 1006.4
20210918061546 64 340 4.0 0.0 0.00 0.00 0.00 64 1006.4
20210918060041 64 343 4.0 0.0 0.00 0.00 0.00 64 1006.4
20210918054542 65 351 5.0 0.0 0.00 0.00 0.00 62 1006.8
20210918053039 64 357 6.0 0.0 0.00 0.00 0.00 63 1007.1
20210918051537 64 344 6.0 0.0 0.00 0.00 0.00 63 1007.5
20210918050037 64 324 4.0 0.0 0.00 0.00 0.00 62 1007.8
20210918044547 62 349 4.0 0.0 0.00 0.00 0.00 66 1007.8
20210918041543 62 356 2.0 0.0 0.00 0.00 0.00 66 1008.2
20210918040035 63 353 4.0 0.0 0.00 0.00 0.00 65 1008.5
20210918034537 64 332 2.0 0.0 0.00 0.00 0.00 64 1008.9
20210918033037 65 320 3.0 0.0 0.00 0.00 0.00 61 1008.9
20210918031554 66 326 5.0 0.0 0.00 0.00 0.00 58 1008.5
20210918030037 66 308 4.0 0.0 0.00 0.00 0.00 58 1008.9
20210918024533 66 295 2.0 0.0 0.00 0.00 0.00 57 1008.9
20210918023036 65 307 2.0 0.0 0.00 0.00 0.00 56 1009.2
20210918021535 65 307 3.0 0.0 0.00 0.00 0.00 54 1009.2
20210918020036 67 319 2.0 0.0 0.00 0.00 0.00 49 1009.6
20210918014551 67 270 3.0 0.0 0.00 0.00 0.00 48 1009.6
20210918013039 68 224 2.0 0.0 0.00 0.00 0.00 45 1010.0
20210918011546 69 285 3.0 0.0 0.00 0.00 0.00 40 1010.0
20210918010034 70 267 4.0 0.0 0.00 0.00 0.00 40 1009.6
20210918004534 70 289 5.0 0.0 0.00 0.00 0.00 40 1009.6
20210918003032 70 295 4.0 0.0 0.00 0.00 0.00 45 1009.6
20210918001538 67 304 2.0 0.0 0.00 0.00 0.00 52 1010.0
20210918000046 66 8 2.0 0.0 0.00 0.00 0.00 57 1010.0
20210917234548 66 6 2.0 0.0 0.00 0.00 0.00 55 1010.3
20210917233044 66 358 2.0 0.0 0.00 0.00 0.00 55 1010.3
20210917231541 65 350 2.0 0.0 0.00 0.00 0.00 58 1010.3
20210917230034 66 181 1.0 0.0 0.00 0.00 0.00 56 1010.3
20210917224548 68 110 0.0 0.0 0.00 0.00 0.00 49 1010.3
20210917223039 67 102 1.0 0.0 0.00 0.00 0.00 50 1010.3
20210917221544 65 171 1.0 0.0 0.00 0.00 0.00 53 1010.7
20210917220040 65 168 2.0 0.0 0.00 0.00 0.00 55 1010.7
20210917214542 63 181 1.0 0.0 0.00 0.00 0.00 56 1010.7
20210917213038 63 183 3.0 0.0 0.00 0.00 0.00 57 1011.0
20210917211538 62 179 2.0 0.0 0.00 0.00 0.00 56 1011.0
20210917210035 62 193 2.0 0.0 0.00 0.00 0.00 55 1011.4
20210917204538 62 177 1.0 0.0 0.00 0.00 0.00 53 1011.4
20210917203037 63 187 1.0 0.0 0.00 0.00 0.00 49 1011.7
20210917201531 63 172 0.0 0.0 0.00 0.00 0.00 50 1012.1
20210917200036 62 143 0.0 0.0 0.00 0.00 0.00 51 1012.1
20210917194532 62 135 0.0 0.0 0.00 0.00 0.00 49 1012.1
20210917193038 62 142 0.0 0.0 0.00 0.00 0.00 48 1012.5
20210917191545 62 189 1.0 0.0 0.00 0.00 0.00 48 1012.8
20210917190039 62 160 1.0 0.0 0.00 0.00 0.00 49 1012.8
20210917184533 61 337 0.0 0.0 0.00 0.00 0.00 51 1013.2
20210917183042 61 281 0.0 0.0 0.00 0.00 0.00 48 1013.2
20210917181539 62 281 0.0 0.0 0.00 0.00 0.00 46 1013.2
20210917180046 61 297 1.0 0.0 0.00 0.00 0.00 48 1013.5
20210917174534 62 332 2.0 0.0 0.00 0.00 0.00 49 1013.5
20210917173047 60 14 1.0 0.0 0.00 0.00 0.00 53 1013.5
20210917171537 58 360 1.0 0.0 0.00 0.00 0.00 55 1013.5
20210917170037 58 147 0.0 0.0 0.00 0.00 0.00 53 1013.9
20210917164548 58 135 0.0 0.0 0.00 0.00 0.00 54 1013.9
20210917163041 57 131 0.0 0.0 0.00 0.00 0.00 56 1013.9
20210917161538 54 19 0.0 0.0 0.00 0.00 0.00 64 1013.9
20210917160049 50 112 0.0 0.0 0.00 0.00 0.00 73 1013.9
20210917154530 48 112 0.0 0.0 0.00 0.00 0.00 78 1013.9
20210917153032 45 166 0.0 0.0 0.00 0.00 0.00 81 1013.9
20210917151549 42 202 1.0 0.0 0.00 0.00 0.00 83 1013.9
20210917150032 41 200 2.0 0.0 0.00 0.00 0.00 84 1013.9